Weather History for LEPP - October, 2012

Change the Weather History Date:

Monday, October 15, 2012

  Actual Average Record
Temperature  
Mean Temperature 54 °F -  
Max Temperature 60 °F 58 °F 120 °F (2014)
Min Temperature 48 °F 44 °F 42 °F (1997)
Degree Days  
Heating Degree Days 11    
Growing Degree Days 4 (Base 50)    
Moisture  
Dew Point 46 °F    
Average Humidity 78    
Maximum Humidity 100    
Minimum Humidity 52    
Precipitation  
Precipitation 0.00 in - - ()
Sea Level Pressure  
Sea Level Pressure 29.94 in    
Wind  
Wind Speed 4 mph ()    
Max Wind Speed 12 mph    
Max Gust Speed -    
Visibility 6.2 miles    
Events      
Averages and records for this station are not official NWS values.
T = Trace of Precipitation, MM = Missing Value Source: Averaged Metar Reports

Daily Weather History Graph

Daily Weather History Graph

Search for Another Location

Airport or City:

Trip Planner

Search our weather history database for the weather conditions in past years. The results will help you decide how hot, cold, wet, or windy it might be!

Date:

Astronomy

Oct. 15, 2012 Rise Set
Actual Time 8:20 AM CEST 7:23 PM CEST
Civil Twilight 7:51 AM CEST 7:52 PM CEST
Nautical Twilight 7:18 AM CEST 8:24 PM CEST
Astronomical Twilight 6:46 AM CEST 8:57 PM CEST
Moon 8:13 AM CEST (10/15) 7:11 PM CEST (10/15)
Length of Visible Light 12h 00m
Length of Day
11h 03m
Waning Crescent, 0% of the Moon is Illuminated
Oct 15
Waning Crescent
Oct 15
New
Oct 22
First Quarter
Oct 29
Full
Nov 7
Last Quarter

Hourly Weather History & Observations

Time (CEST) Temp. Dew Point Humidity Pressure Visibility Wind Dir Wind Speed Gust Speed Precip Events Conditions
12:00 AM 50.0 °F 46.4 °F 87% 29.80 in 6.2 mi Calm Calm - N/A   Scattered Clouds
5:30 AM 48.2 °F 46.4 °F 93% 29.86 in 6.2 mi NW 4.6 mph - N/A   Mostly Cloudy
6:00 AM 48.2 °F 46.4 °F 93% 29.86 in 6.2 mi North 6.9 mph - N/A   Mostly Cloudy
6:30 AM 50.0 °F 44.6 °F 82% 29.86 in 6.2 mi NW 5.8 mph - N/A   Mostly Cloudy
7:00 AM 48.2 °F 46.4 °F 93% 29.86 in 6.2 mi NNW 5.8 mph - N/A   Mostly Cloudy
7:30 AM 48.2 °F 46.4 °F 93% 29.89 in 6.2 mi NNW 6.9 mph - N/A   Mostly Cloudy
8:00 AM 48.2 °F 46.4 °F 93% 29.89 in 6.2 mi NNW 3.5 mph - N/A   Mostly Cloudy
8:30 AM 48.2 °F 46.4 °F 93% 29.89 in 6.2 mi NW 3.5 mph - N/A   Scattered Clouds
9:00 AM 48.2 °F 46.4 °F 93% 29.89 in 6.2 mi Variable 1.2 mph - N/A   Scattered Clouds
9:30 AM 48.2 °F 48.2 °F 100% 29.92 in 6.2 mi Calm Calm - N/A   Scattered Clouds
10:00 AM 50.0 °F 46.4 °F 87% 29.92 in 6.2 mi Calm Calm - N/A   Scattered Clouds
10:30 AM 51.8 °F 46.4 °F 82% 29.95 in 6.2 mi Variable 2.3 mph - N/A   Scattered Clouds
11:00 AM 51.8 °F 48.2 °F 88% 29.95 in 6.2 mi NNE 8.1 mph - N/A   Scattered Clouds
11:30 AM 53.6 °F 48.2 °F 82% 29.98 in 6.2 mi NNW 8.1 mph - N/A   Scattered Clouds
12:00 PM 51.8 °F 48.2 °F 88% 29.98 in 6.2 mi NNW 6.9 mph - N/A   Scattered Clouds
12:30 PM 53.6 °F 44.6 °F 72% 29.98 in 6.2 mi NNW 5.8 mph - N/A   Scattered Clouds
1:00 PM 53.6 °F 46.4 °F 77% 29.98 in 6.2 mi NW 3.5 mph - N/A   Scattered Clouds
1:30 PM 55.4 °F 48.2 °F 77% 29.98 in 6.2 mi North 9.2 mph - N/A   Scattered Clouds
2:00 PM 57.2 °F 48.2 °F 72% 29.95 in 6.2 mi North 10.4 mph - N/A   Scattered Clouds
2:30 PM 57.2 °F 46.4 °F 67% 29.95 in 6.2 mi North 6.9 mph - N/A   Scattered Clouds
3:00 PM 57.2 °F 44.6 °F 63% 29.95 in 6.2 mi North 6.9 mph - N/A   Scattered Clouds
3:30 PM 59.0 °F 44.6 °F 59% 29.95 in 6.2 mi NNW 5.8 mph - N/A   Scattered Clouds
4:00 PM 60.8 °F 44.6 °F 55% 29.95 in 6.2 mi NNW 11.5 mph - N/A   Scattered Clouds
4:30 PM 60.8 °F 42.8 °F 52% 29.95 in 6.2 mi NNW 10.4 mph - N/A   Scattered Clouds
5:00 PM 59.0 °F 42.8 °F 55% 29.95 in 6.2 mi NNW 11.5 mph - N/A   Scattered Clouds
5:30 PM 59.0 °F 44.6 °F 59% 29.95 in 6.2 mi NNW 9.2 mph - N/A   Scattered Clouds
6:00 PM 59.0 °F 44.6 °F 59% 29.95 in 6.2 mi NNW 9.2 mph - N/A   Scattered Clouds
6:30 PM 57.2 °F 44.6 °F 63% 29.95 in 6.2 mi North 5.8 mph - N/A   Scattered Clouds
7:00 PM 55.4 °F 44.6 °F 67% 29.95 in 6.2 mi North 2.3 mph - N/A   Scattered Clouds
8:00 PM 53.6 °F 44.6 °F 72% 29.98 in - Variable 2.3 mph - N/A   Clear
8:30 PM 51.8 °F 44.6 °F 76% 29.98 in - Variable 1.2 mph - N/A   Clear
9:00 PM 51.8 °F 44.6 °F 76% 29.98 in - Variable 1.2 mph - N/A   Clear
9:30 PM 50.0 °F 44.6 °F 82% 29.98 in - Variable 1.2 mph - N/A   Clear
10:00 PM 48.2 °F 44.6 °F 87% 29.98 in - Variable 1.2 mph - N/A   Clear
10:30 PM 48.2 °F 44.6 °F 87% 29.98 in - Calm Calm - N/A   Clear
11:00 PM 48.2 °F 44.6 °F 87% 29.98 in - West 1.2 mph - N/A   Clear
11:30 PM 48.2 °F 44.6 °F 87% 29.98 in - Variable 1.2 mph - N/A   Clear